GW2155 Weather Reports


Display with metric or nautical units.
time (UTC)temp
F
wind
direction
speed
MPH
gust
MPH
rain 1hr
in
rain 24hr
in
rain mn
in
humidity
%
barometer
mb
20260906213818 89 262 3.0 3.0 0.00 0.00 0.00 37 1001.0
20260906213313 87 167 2.0 2.0 0.00 0.00 0.00 40 1001.2
20260906212810 87 137 0.0 0.0 0.00 0.00 0.00 41 1001.6
20260906212306 87 265 0.0 1.0 0.00 0.00 0.00 40 1001.6
20260906211806 86 278 1.0 1.0 0.00 0.00 0.00 41 1001.7
20260906211301 87 141 3.0 3.0 0.00 0.00 0.00 41 1001.3
20260906210756 87 171 2.0 2.0 0.00 0.00 0.00 41 1001.6
20260906210255 87 227 2.0 2.0 0.00 0.00 0.00 40 1001.8
20260906205750 87 217 1.0 1.0 0.00 0.00 0.00 40 1001.9
20260906205247 87 158 0.0 0.0 0.00 0.00 0.00 41 1001.8
20260906204742 89 189 1.0 2.0 0.00 0.00 0.00 38 1001.8
20260906204241 89 173 0.0 0.0 0.00 0.00 0.00 36 1001.9
20260906203741 89 99 0.0 1.0 0.00 0.00 0.00 35 1002.0
20260906203236 89 211 1.0 1.0 0.00 0.00 0.00 36 1002.0
20260906202733 89 196 2.0 3.0 0.00 0.00 0.00 36 1002.0
20260906202232 89 166 0.0 1.0 0.00 0.00 0.00 37 1002.1
20260906201727 89 154 0.0 0.0 0.00 0.00 0.00 36 1002.5
20260906201226 89 282 2.0 3.0 0.00 0.00 0.00 38 1002.2
20260906200722 88 166 1.0 2.0 0.00 0.00 0.00 35 1002.4
20260906200218 87 104 3.0 4.0 0.00 0.00 0.00 36 1002.2
20260906195714 87 302 2.0 2.0 0.00 0.00 0.00 35 1002.4
20260906195210 87 145 1.0 1.0 0.00 0.00 0.00 37 1002.4
20260906194706 88 103 1.0 1.0 0.00 0.00 0.00 39 1002.6
20260906194201 87 190 2.0 2.0 0.00 0.00 0.00 40 1002.5
20260906193656 86 153 0.0 0.0 0.00 0.00 0.00 43 1002.6
20260906193150 86 149 0.0 1.0 0.00 0.00 0.00 44 1002.7
20260906192647 86 280 5.0 7.0 0.00 0.00 0.00 43 1002.7
20260906192146 85 121 1.0 2.0 0.00 0.00 0.00 45 1002.7
20260906191641 85 229 6.0 7.0 0.00 0.00 0.00 45 1002.8
20260906191140 85 282 5.0 6.0 0.00 0.00 0.00 46 1002.8
20260906190634 85 197 2.0 2.0 0.00 0.00 0.00 47 1003.1
20260906190129 85 253 3.0 3.0 0.00 0.00 0.00 48 1003.1
20260906185628 84 265 4.0 4.0 0.00 0.00 0.00 50 1003.2
20260906185128 84 274 4.0 4.0 0.00 0.00 0.00 50 1003.4
20260906184622 82 53 0.0 1.0 0.00 0.00 0.00 51 1003.5
20260906184118 83 270 2.0 3.0 0.00 0.00 0.00 52 1003.6
20260906183614 83 129 2.0 2.0 0.00 0.00 0.00 51 1003.5
20260906183109 83 231 2.0 2.0 0.00 0.00 0.00 52 1003.6
20260906182604 83 150 0.0 1.0 0.00 0.00 0.00 53 1004.1
20260906182101 82 261 0.0 1.0 0.00 0.00 0.00 53 1003.9
20260906181555 82 256 3.0 3.0 0.00 0.00 0.00 53 1003.9
20260906181051 82 165 1.0 2.0 0.00 0.00 0.00 54 1004.1
20260906180551 81 167 0.0 0.0 0.00 0.00 0.00 55 1004.2
20260906180050 80 270 1.0 2.0 0.00 0.00 0.00 56 1004.3
20260906175549 80 155 0.0 1.0 0.00 0.00 0.00 57 1004.6
20260906175044 81 165 0.0 1.0 0.00 0.00 0.00 56 1004.7
20260906174542 80 126 1.0 1.0 0.00 0.00 0.00 55 1004.9
20260906174038 79 197 1.0 1.0 0.00 0.00 0.00 58 1004.8
20260906173532 78 142 2.0 2.0 0.00 0.00 0.00 59 1005.0
20260906173028 78 93 3.0 3.0 0.00 0.00 0.00 61 1005.0
20260906172523 79 121 3.0 3.0 0.00 0.00 0.00 61 1005.0
20260906172018 79 270 2.0 2.0 0.00 0.00 0.00 59 1005.1
20260906171513 78 173 0.0 1.0 0.00 0.00 0.00 61 1005.1
20260906171008 78 263 3.0 3.0 0.00 0.00 0.00 61 1005.3
20260906170504 78 283 4.0 6.0 0.00 0.00 0.00 61 1005.5
20260906170003 77 145 0.0 1.0 0.00 0.00 0.00 62 1005.4
20260906165500 75 176 1.0 1.0 0.00 0.00 0.00 65 1005.7
20260906164955 76 137 4.0 4.0 0.00 0.00 0.00 65 1005.6
20260906164454 76 105 1.0 1.0 0.00 0.00 0.00 63 1005.5
20260906163951 75 149 0.0 1.0 0.00 0.00 0.00 66 1005.7
20260906163446 75 164 2.0 3.0 0.00 0.00 0.00 65 1005.7
20260906162944 75 173 1.0 2.0 0.00 0.00 0.00 65 1005.6
20260906162442 74 188 2.0 2.0 0.00 0.00 0.00 67 1005.7
20260906161937 73 188 2.0 3.0 0.00 0.00 0.00 69 1005.5
20260906161432 73 138 5.0 6.0 0.00 0.00 0.00 69 1005.5
20260906160931 72 178 0.0 1.0 0.00 0.00 0.00 70 1005.4
20260906160424 72 138 2.0 3.0 0.00 0.00 0.00 71 1005.6
20260906155923 71 140 0.0 0.0 0.00 0.00 0.00 72 1005.6
20260906155416 72 128 2.0 3.0 0.00 0.00 0.00 72 1005.6
20260906154913 73 139 3.0 4.0 0.00 0.00 0.00 69 1005.5
20260906154407 71 182 0.0 1.0 0.00 0.00 0.00 71 1005.8
20260906153906 71 154 3.0 3.0 0.00 0.00 0.00 74 1005.8
20260906153404 70 107 3.0 4.0 0.00 0.00 0.00 74 1005.7
20260906152900 70 72 2.0 3.0 0.00 0.00 0.00 75 1005.8
20260906152355 70 184 2.0 3.0 0.00 0.00 0.00 75 1006.1
20260906151854 70 132 4.0 4.0 0.00 0.00 0.00 76 1005.7
20260906151350 69 135 0.0 1.0 0.00 0.00 0.00 78 1005.7
20260906150846 69 215 2.0 2.0 0.00 0.00 0.00 77 1006.0
20260906150341 68 152 0.0 1.0 0.00 0.00 0.00 78 1006.1
20260906145840 67 149 2.0 2.0 0.00 0.00 0.00 81 1006.1
20260906145339 68 128 2.0 3.0 0.00 0.00 0.00 81 1006.0
20260906144834 68 175 4.0 4.0 0.00 0.00 0.00 80 1006.0
20260906144329 69 158 2.0 4.0 0.00 0.00 0.00 80 1006.0
20260906143829 68 190 0.0 1.0 0.00 0.00 0.00 80 1006.1
20260906143325 67 183 2.0 2.0 0.00 0.00 0.00 81 1005.8
20260906142820 67 171 2.0 2.0 0.00 0.00 0.00 82 1005.8
20260906142315 67 130 4.0 4.0 0.00 0.00 0.00 82 1006.1
20260906141815 66 168 1.0 1.0 0.00 0.00 0.00 83 1005.8
20260906141310 66 127 0.0 1.0 0.00 0.00 0.00 84 1005.8
20260906140808 65 155 3.0 4.0 0.00 0.00 0.00 85 1005.8
20260906140303 64 156 2.0 2.0 0.00 0.00 0.00 86 1005.7
20260906135801 64 146 2.0 3.0 0.00 0.00 0.00 86 1005.7
20260906135256 64 139 4.0 4.0 0.00 0.00 0.00 86 1006.0
20260906134751 64 147 1.0 2.0 0.00 0.00 0.00 87 1005.8
20260906134246 63 151 1.0 1.0 0.00 0.00 0.00 87 1006.0
20260906133742 63 142 2.0 2.0 0.00 0.00 0.00 88 1005.6
20260906133238 63 134 2.0 3.0 0.00 0.00 0.00 88 1005.7
20260906132733 63 145 2.0 2.0 0.00 0.00 0.00 88 1005.5
20260906132228 63 154 3.0 4.0 0.00 0.00 0.00 88 1005.8
20260906131724 63 139 0.0 1.0 0.00 0.00 0.00 88 1005.7
20260906131218 63 131 1.0 2.0 0.00 0.00 0.00 88 1005.6
20260906130714 63 146 2.0 2.0 0.00 0.00 0.00 88 1005.8
20260906130209 62 132 2.0 2.0 0.00 0.00 0.00 88 1005.6
20260906125707 62 136 2.0 3.0 0.00 0.00 0.00 88 1005.8
20260906125206 62 143 0.0 1.0 0.00 0.00 0.00 88 1005.5
20260906124701 62 120 2.0 3.0 0.00 0.00 0.00 88 1005.5
20260906124156 62 149 2.0 2.0 0.00 0.00 0.00 87 1005.4
20260906123655 62 98 1.0 2.0 0.00 0.00 0.00 87 1005.4
20260906123151 62 142 1.0 2.0 0.00 0.00 0.00 87 1005.4
20260906122650 62 152 0.0 1.0 0.00 0.00 0.00 86 1005.3
20260906122145 62 138 0.0 0.0 0.00 0.00 0.00 86 1005.0
20260906121642 62 146 0.0 0.0 0.00 0.00 0.00 85 1005.3
20260906121138 62 147 0.0 1.0 0.00 0.00 0.00 85 1005.1
20260906120633 62 133 1.0 1.0 0.00 0.00 0.00 86 1005.3
20260906120130 62 152 0.0 0.0 0.00 0.00 0.00 86 1005.4
20260906115625 62 151 0.0 0.0 0.00 0.00 0.00 85 1005.1
20260906115120 63 151 0.0 0.0 0.00 0.00 0.00 85 1005.3
20260906114614 63 126 0.0 1.0 0.00 0.00 0.00 85 1005.4
20260906114109 63 142 0.0 0.0 0.00 0.00 0.00 85 1005.3
20260906113609 63 144 2.0 3.0 0.00 0.00 0.00 85 1005.5
20260906113103 63 137 3.0 3.0 0.00 0.00 0.00 83 1005.3
20260906112557 63 134 1.0 1.0 0.00 0.00 0.00 82 1004.9
20260906112055 64 147 2.0 2.0 0.00 0.00 0.00 82 1005.4
20260906111554 63 115 0.0 1.0 0.00 0.00 0.00 83 1005.4
20260906111049 63 112 1.0 1.0 0.00 0.00 0.00 85 1005.3
20260906110549 63 118 1.0 1.0 0.00 0.00 0.00 86 1005.3
20260906110048 63 142 0.0 0.0 0.00 0.00 0.00 86 1005.1
20260906105543 63 143 0.0 0.0 0.00 0.00 0.00 85 1005.0
20260906105039 63 139 0.0 0.0 0.00 0.00 0.00 86 1004.9
20260906104537 63 143 0.0 0.0 0.00 0.00 0.00 86 1004.9
20260906104032 63 124 0.0 0.0 0.00 0.00 0.00 86 1005.0
20260906103530 63 138 0.0 0.0 0.00 0.00 0.00 85 1005.0
20260906103026 63 134 0.0 0.0 0.00 0.00 0.00 84 1005.0
20260906102526 64 130 2.0 2.0 0.00 0.00 0.00 84 1004.9
20260906102021 64 135 0.0 0.0 0.00 0.00 0.00 83 1005.0
20260906101515 64 138 2.0 2.0 0.00 0.00 0.00 83 1005.1
20260906101010 64 142 1.0 2.0 0.00 0.00 0.00 82 1005.3
20260906100506 65 148 0.0 0.0 0.00 0.00 0.00 82 1005.1
20260906100000 65 144 0.0 0.0 0.00 0.00 0.00 82 1005.4
20260906095455 65 146 1.0 2.0 0.00 0.00 0.00 82 1005.4
20260906094950 65 159 0.0 0.0 0.00 0.00 0.00 81 1005.1
20260906094449 66 156 0.0 0.0 0.00 0.00 0.00 80 1005.3
20260906093946 66 185 2.0 3.0 0.00 0.00 0.00 80 1005.0
20260906093442 66 155 2.0 2.0 0.00 0.00 0.00 79 1004.8
20260906092941 66 133 1.0 1.0 0.00 0.00 0.00 78 1005.1
20260906092436 66 155 0.0 1.0 0.00 0.00 0.00 77 1004.9
20260906091931 66 172 2.0 3.0 0.00 0.00 0.00 75 1004.8
20260906091427 66 156 2.0 2.0 0.00 0.00 0.00 74 1004.9
20260906090923 66 144 3.0 3.0 0.00 0.00 0.00 73 1004.6
20260906090418 66 131 4.0 6.0 0.00 0.00 0.00 73 1004.3
20260906085918 66 148 2.0 2.0 0.00 0.00 0.00 73 1003.9
20260906085412 67 136 4.0 4.0 0.00 0.00 0.00 73 1004.2
20260906084911 67 118 4.0 4.0 0.00 0.00 0.00 73 1004.3
20260906084407 67 131 5.0 7.0 0.00 0.00 0.00 72 1004.2
20260906083905 68 156 5.0 7.0 0.00 0.00 0.00 72 1004.1
20260906083401 68 136 2.0 3.0 0.00 0.00 0.00 72 1004.3
20260906082900 68 161 3.0 6.0 0.00 0.00 0.00 72 1004.2
20260906082355 68 149 3.0 4.0 0.00 0.00 0.00 72 1004.4
20260906081852 68 146 4.0 7.0 0.00 0.00 0.00 72 1004.3
20260906081347 68 142 3.0 4.0 0.00 0.00 0.00 72 1004.4
20260906080843 68 151 2.0 3.0 0.00 0.00 0.00 71 1004.4
20260906080339 68 162 4.0 4.0 0.00 0.00 0.00 70 1004.4
20260906075838 68 140 4.0 6.0 0.00 0.00 0.00 70 1004.3
20260906075333 68 147 6.0 7.0 0.00 0.00 0.00 69 1004.4
20260906074828 68 143 6.0 7.0 0.00 0.00 0.00 68 1004.6
20260906074328 68 107 5.0 8.0 0.00 0.00 0.00 65 1004.6
20260906073827 68 118 9.0 10.0 0.00 0.00 0.00 64 1004.4
20260906073322 68 144 4.0 6.0 0.00 0.00 0.00 63 1004.3
20260906072819 68 133 5.0 7.0 0.00 0.00 0.00 63 1004.4
20260906072314 68 85 4.0 6.0 0.00 0.00 0.00 62 1004.1
20260906071810 69 104 6.0 7.0 0.00 0.00 0.00 60 1003.9
20260906071304 69 142 5.0 7.0 0.00 0.00 0.00 58 1004.2
20260906070800 70 135 7.0 9.0 0.00 0.00 0.00 55 1004.2
20260906070256 71 136 6.0 7.0 0.00 0.00 0.00 52 1004.2
20260906065750 71 128 2.0 2.0 0.00 0.00 0.00 52 1004.2
20260906065245 71 118 1.0 1.0 0.00 0.00 0.00 51 1004.6
20260906064741 72 134 4.0 4.0 0.00 0.00 0.00 49 1004.4
20260906064236 72 150 2.0 2.0 0.00 0.00 0.00 50 1004.6
20260906063731 72 130 2.0 3.0 0.00 0.00 0.00 50 1004.2
20260906063227 72 142 1.0 2.0 0.00 0.00 0.00 50 1004.1
20260906062722 72 138 3.0 6.0 0.00 0.00 0.00 51 1004.1
20260906062221 71 145 1.0 2.0 0.00 0.00 0.00 52 1004.1
20260906061717 71 140 0.0 1.0 0.00 0.00 0.00 54 1004.1
20260906061213 72 150 1.0 2.0 0.00 0.00 0.00 53 1004.3
20260906060709 71 113 2.0 2.0 0.00 0.00 0.00 55 1004.3
20260906060206 71 136 0.0 0.0 0.00 0.00 0.00 55 1004.3
20260906055701 71 138 0.0 0.0 0.00 0.00 0.00 54 1004.6
20260906055156 71 148 0.0 0.0 0.00 0.00 0.00 55 1004.6
20260906054651 72 154 0.0 0.0 0.00 0.00 0.00 54 1004.7
20260906054146 72 156 0.0 0.0 0.00 0.00 0.00 54 1004.4
20260906053643 72 150 0.0 0.0 0.00 0.00 0.00 53 1004.4
20260906053138 72 261 1.0 1.0 0.00 0.00 0.00 51 1004.7
20260906052634 73 179 1.0 1.0 0.00 0.00 0.00 49 1004.6
20260906052130 73 156 0.0 0.0 0.00 0.00 0.00 49 1004.7
20260906051626 72 156 1.0 1.0 0.00 0.00 0.00 49 1004.3
20260906051126 72 127 0.0 1.0 0.00 0.00 0.00 49 1004.2
20260906050621 72 144 0.0 0.0 0.00 0.00 0.00 50 1004.3
20260906050116 72 165 0.0 0.0 0.00 0.00 0.00 49 1004.4
20260906045614 72 153 0.0 0.0 0.00 0.00 0.00 49 1004.4
20260906045110 72 166 0.0 0.0 0.00 0.00 0.00 52 1004.4
20260906044606 72 140 0.0 0.0 0.00 0.00 0.00 49 1004.1
20260906044101 73 145 0.0 0.0 0.00 0.00 0.00 48 1003.6
20260906043557 73 141 2.0 3.0 0.00 0.00 0.00 47 1003.6
20260906043052 73 148 2.0 2.0 0.00 0.00 0.00 47 1003.4
20260906042551 72 156 1.0 1.0 0.00 0.00 0.00 48 1003.4
20260906042046 72 158 0.0 0.0 0.00 0.00 0.00 48 1003.5
20260906041543 73 145 0.0 0.0 0.00 0.00 0.00 48 1003.5
20260906041037 73 164 0.0 1.0 0.00 0.00 0.00 47 1003.3
20260906040532 74 156 1.0 2.0 0.00 0.00 0.00 47 1003.2
20260906040028 73 168 3.0 3.0 0.00 0.00 0.00 46 1003.3
20260906035523 74 207 1.0 1.0 0.00 0.00 0.00 47 1003.4
20260906035019 74 128 0.0 0.0 0.00 0.00 0.00 45 1003.3
20260906034518 75 166 0.0 0.0 0.00 0.00 0.00 44 1003.3
20260906034013 75 153 1.0 1.0 0.00 0.00 0.00 43 1003.1
20260906033508 75 136 1.0 2.0 0.00 0.00 0.00 43 1003.1
20260906033004 76 146 1.0 1.0 0.00 0.00 0.00 44 1003.1
20260906032500 76 155 0.0 1.0 0.00 0.00 0.00 42 1002.9
20260906031954 76 141 2.0 3.0 0.00 0.00 0.00 42 1002.8
20260906031450 77 164 5.0 7.0 0.00 0.00 0.00 41 1002.8
20260906030945 77 134 2.0 3.0 0.00 0.00 0.00 41 1002.7
20260906030440 78 119 3.0 3.0 0.00 0.00 0.00 40 1002.8
20260906025934 78 148 2.0 2.0 0.00 0.00 0.00 39 1002.5
20260906025428 79 168 1.0 3.0 0.00 0.00 0.00 37 1002.7
20260906024927 78 135 4.0 4.0 0.00 0.00 0.00 37 1002.5
20260906024426 78 154 2.0 3.0 0.00 0.00 0.00 38 1002.4
20260906023922 79 183 3.0 3.0 0.00 0.00 0.00 38 1002.6
20260906023418 79 126 3.0 4.0 0.00 0.00 0.00 37 1002.6
20260906022918 79 118 1.0 1.0 0.00 0.00 0.00 37 1002.5
20260906022413 79 135 5.0 6.0 0.00 0.00 0.00 37 1002.4
20260906021909 80 147 3.0 4.0 0.00 0.00 0.00 38 1002.4
20260906021408 80 155 4.0 4.0 0.00 0.00 0.00 36 1001.8
20260906020903 80 86 3.0 3.0 0.00 0.00 0.00 36 1002.1
20260906020357 80 109 3.0 4.0 0.00 0.00 0.00 36 1002.1
20260906015851 81 167 3.0 3.0 0.00 0.00 0.00 36 1002.1
20260906015345 81 132 1.0 2.0 0.00 0.00 0.00 36 1001.8
20260906014844 81 146 4.0 6.0 0.00 0.00 0.00 35 1001.8
20260906014339 82 154 3.0 7.0 0.00 0.00 0.00 34 1001.9
20260906013835 83 118 3.0 6.0 0.00 0.00 0.00 34 1001.9
20260906013331 83 140 5.0 8.0 0.00 0.00 0.00 33 1001.7
20260906012826 83 137 6.0 8.0 0.00 0.00 0.00 32 1001.6
20260906012321 84 117 2.0 4.0 0.00 0.00 0.00 32 1001.8
20260906011815 84 124 7.0 9.0 0.00 0.00 0.00 32 1001.6
20260906011310 85 164 4.0 7.0 0.00 0.00 0.00 32 1001.8
20260906010806 85 141 5.0 8.0 0.00 0.00 0.00 31 1001.9
20260906010302 86 107 6.0 9.0 0.00 0.00 0.00 30 1001.6
20260906005757 86 155 4.0 6.0 0.00 0.00 0.00 30 1001.8
20260906005256 87 119 4.0 7.0 0.00 0.00 0.00 29 1001.9
20260906004755 87 110 4.0 8.0 0.00 0.00 0.00 29 1001.7
20260906004250 88 106 6.0 10.0 0.00 0.00 0.00 28 1001.8
20260906003750 88 119 5.0 8.0 0.00 0.00 0.00 27 1001.6
20260906003245 89 109 4.0 6.0 0.00 0.00 0.00 27 1001.9
20260906002740 89 157 3.0 4.0 0.00 0.00 0.00 26 1001.6
20260906002235 90 164 3.0 3.0 0.00 0.00 0.00 26 1001.6
20260906001730 90 148 2.0 3.0 0.00 0.00 0.00 26 1001.7
20260906001225 90 115 2.0 3.0 0.00 0.00 0.00 26 1001.6
20260906000721 90 128 3.0 3.0 0.00 0.00 0.00 26 1001.4
20260906000216 91 81 2.0 3.0 0.00 0.00 0.00 26 1001.4
20260905235715 91 142 1.0 1.0 0.00 0.00 0.00 25 1001.3
20260905235210 91 116 1.0 2.0 0.00 0.00 0.00 24 1001.4
20260905234706 91 135 1.0 2.0 0.00 0.00 0.00 24 1001.3
20260905234201 91 121 5.0 7.0 0.00 0.00 0.00 24 1001.4
20260905233656 91 122 2.0 3.0 0.00 0.00 0.00 24 1001.3
20260905233155 92 138 1.0 2.0 0.00 0.00 0.00 24 1001.6
20260905232651 93 141 1.0 1.0 0.00 0.00 0.00 24 1001.2
20260905232146 94 145 0.0 1.0 0.00 0.00 0.00 23 1001.2
20260905231641 95 98 3.0 3.0 0.00 0.00 0.00 22 1001.3
20260905231137 95 152 0.0 0.0 0.00 0.00 0.00 22 1001.3
20260905230633 95 131 0.0 0.0 0.00 0.00 0.00 21 1001.2
20260905230131 95 160 1.0 1.0 0.00 0.00 0.00 21 1001.4
20260905225631 95 137 3.0 3.0 0.00 0.00 0.00 22 1001.3
20260905225126 96 156 2.0 3.0 0.00 0.00 0.00 22 1001.1
20260905224625 95 142 0.0 0.0 0.00 0.00 0.00 21 1001.3
20260905224125 95 267 1.0 2.0 0.00 0.00 0.00 22 1001.0
20260905223622 96 291 4.0 7.0 0.00 0.00 0.00 22 1001.2
20260905223118 95 132 1.0 1.0 0.00 0.00 0.00 21 1001.2
20260905222613 95 138 0.0 0.0 0.00 0.00 0.00 22 1001.3
20260905222108 94 112 4.0 4.0 0.00 0.00 0.00 24 1001.2
20260905221604 94 156 2.0 3.0 0.00 0.00 0.00 23 1001.2
20260905221100 95 171 2.0 6.0 0.00 0.00 0.00 23 1001.1
20260905220555 95 134 0.0 0.0 0.00 0.00 0.00 21 1001.3
20260905220051 95 117 1.0 2.0 0.00 0.00 0.00 22 1001.6
20260905215550 95 214 2.0 2.0 0.00 0.00 0.00 21 1001.6
20260905215046 95 155 0.0 0.0 0.00 0.00 0.00 22 1001.6
20260905214542 95 172 3.0 6.0 0.00 0.00 0.00 22 1001.6